Weather History for Eastman, GA

Change the Weather History Date:

Friday, November 15, 2013

  Actual Average Record
Temperature  
Mean Temperature 53 °F -  
Max Temperature 65 °F 68 °F 65 °F (2013)
Min Temperature 41 °F 41 °F 28 °F (2014)
Degree Days  
Heating Degree Days 12    
Growing Degree Days 3 (Base 50)    
Moisture  
Dew Point 52 °F    
Average Humidity 88    
Maximum Humidity 100    
Minimum Humidity 74    
Precipitation  
Precipitation 0.00 in - - ()
Sea Level Pressure  
Sea Level Pressure 30.24 in    
Wind  
Wind Speed 1 mph (East)    
Max Wind Speed 7 mph    
Max Gust Speed -    
Visibility 10 miles    
Events Fog    
Averages and records for this station are not official NWS values.
T = Trace of Precipitation, MM = Missing Value Source: NWS Daily Summary

Daily Weather History Graph

Daily Weather History Graph

Search for Another Location

Airport:

Trip Planner

Search our weather history database for the weather conditions in past years. The results will help you decide how hot, cold, wet, or windy it might be!

Date:

Astronomy

Nov. 15, 2013 Rise Set
Actual Time 7:01 AM EST 5:32 PM EST
Civil Twilight 6:35 AM EST 5:58 PM EST
Nautical Twilight 6:06 AM EST 6:27 PM EST
Astronomical Twilight 5:37 AM EST 6:56 PM EST
Moon 4:23 PM EST (11/15) 5:03 AM EST (11/15)
Length of Visible Light 11h 22m
Length of Day
10h 30m
Waxing Gibbous, 96% of the Moon is Illuminated
Nov 15
Waxing Gibbous
Nov 17
Full
Nov 25
Last Quarter
Dec 2
New
Dec 9
First Quarter

Hourly Weather History & Observations

Time (EST) Temp. Dew Point Humidity Pressure Visibility Wind Dir Wind Speed Gust Speed Precip Events Conditions
12:15 AM 41.9 °F 41.7 °F 99% 30.32 in 10.0 mi Calm Calm - N/A   Clear
12:35 AM 42.8 °F 42.1 °F 97% 30.32 in 10.0 mi Calm Calm - N/A   Clear
12:55 AM 42.4 °F 42.3 °F 99% 30.32 in 10.0 mi Calm Calm - N/A   Clear
1:15 AM 42.8 °F 42.4 °F 99% 30.32 in 10.0 mi Calm Calm - N/A   Clear
1:55 AM 43.2 °F 42.8 °F 99% 30.30 in 10.0 mi Calm Calm - N/A   Clear
2:15 AM 43.2 °F 42.6 °F 98% 30.30 in 10.0 mi Calm Calm - N/A   Clear
2:35 AM 44.1 °F 43.5 °F 98% 30.29 in 10.0 mi Calm Calm - N/A   Clear
2:55 AM 44.6 °F 43.9 °F 97% 30.28 in 10.0 mi Calm Calm - N/A   Clear
3:15 AM 44.8 °F 44.2 °F 98% 30.28 in 10.0 mi Calm Calm - N/A   Clear
3:35 AM 48.4 °F 46.8 °F 94% 30.28 in 10.0 mi Calm Calm - N/A   Clear
3:55 AM 46.2 °F 45.1 °F 96% 30.28 in 10.0 mi Calm Calm - N/A   Clear
4:15 AM 45.9 °F 45.3 °F 98% 30.27 in 10.0 mi Calm Calm - N/A   Clear
4:35 AM 46.0 °F 45.7 °F 99% 30.28 in 10.0 mi Calm Calm - N/A   Clear
4:55 AM 46.9 °F 45.7 °F 95% 30.28 in 10.0 mi Calm Calm - N/A   Clear
5:15 AM 50.0 °F 48.2 °F 94% 30.28 in 10.0 mi Calm Calm - N/A   Clear
5:35 AM 52.2 °F 48.0 °F 86% 30.28 in 10.0 mi ENE 3.5 mph - N/A   Scattered Clouds
5:55 AM 52.3 °F 48.0 °F 85% 30.29 in 10.0 mi East 4.6 mph - N/A   Overcast
6:15 AM 51.6 °F 48.2 °F 88% 30.28 in 10.0 mi East 3.5 mph - N/A   Overcast
6:35 AM 52.5 °F 47.8 °F 84% 30.28 in 10.0 mi East 4.6 mph - N/A   Mostly Cloudy
6:55 AM 52.7 °F 47.8 °F 84% 30.28 in 10.0 mi East 4.6 mph - N/A   Scattered Clouds
7:15 AM 52.7 °F 47.8 °F 84% 30.30 in 10.0 mi East 3.5 mph - N/A   Clear
7:35 AM 52.9 °F 48.2 °F 84% 30.30 in 10.0 mi Calm Calm - N/A   Clear
7:55 AM 52.5 °F 48.7 °F 87% 30.31 in 10.0 mi Calm Calm - N/A   Mostly Cloudy
8:15 AM 53.8 °F 48.6 °F 82% 30.31 in 10.0 mi East 3.5 mph - N/A   Mostly Cloudy
8:35 AM 54.5 °F 48.7 °F 81% 30.31 in 10.0 mi East 3.5 mph - N/A   Overcast
8:55 AM 54.9 °F 49.1 °F 81% 30.30 in 10.0 mi East 4.6 mph - N/A   Overcast
9:15 AM 55.6 °F 49.8 °F 81% 30.30 in 10.0 mi ESE 3.5 mph - N/A   Mostly Cloudy
9:35 AM 56.3 °F 50.4 °F 80% 30.30 in 10.0 mi ESE 3.5 mph - N/A   Scattered Clouds
9:55 AM 56.8 °F 51.1 °F 81% 30.28 in 10.0 mi ESE 6.9 mph - N/A   Clear
10:15 AM 57.6 °F 51.8 °F 81% 30.28 in 10.0 mi ESE 4.6 mph - N/A   Clear
10:35 AM 59.0 °F 52.7 °F 80% 30.28 in 10.0 mi ESE 3.5 mph - N/A   Clear
10:55 AM 59.4 °F 53.2 °F 80% 30.27 in 10.0 mi ESE 3.5 mph - N/A   Scattered Clouds
11:15 AM 59.9 °F 53.6 °F 80% 30.28 in 10.0 mi Calm Calm - N/A   Overcast
11:35 AM 60.3 °F 54.0 °F 80% 30.27 in 10.0 mi Calm Calm - N/A   Mostly Cloudy
11:55 AM 60.8 °F 54.5 °F 80% 30.25 in 10.0 mi NE 3.5 mph - N/A   Scattered Clouds
12:15 PM 61.3 °F 54.5 °F 78% 30.24 in 10.0 mi Calm Calm - N/A   Clear
12:35 PM 61.7 °F 54.7 °F 78% 30.22 in 10.0 mi NE 3.5 mph - N/A   Clear
12:55 PM 62.1 °F 54.9 °F 77% 30.21 in 10.0 mi East 4.6 mph - N/A   Clear
1:15 PM 62.6 °F 55.4 °F 77% 30.20 in 10.0 mi Calm Calm - N/A   Clear
1:35 PM 63.1 °F 55.6 °F 76% 30.20 in 10.0 mi East 3.5 mph - N/A   Clear
1:55 PM 64.2 °F 56.3 °F 75% 30.19 in 10.0 mi Calm Calm - N/A   Clear
2:15 PM 64.8 °F 56.3 °F 74% 30.18 in 10.0 mi ESE 4.6 mph - N/A   Mostly Cloudy
2:35 PM 64.9 °F 56.7 °F 74% 30.17 in 10.0 mi ESE 4.6 mph - N/A   Mostly Cloudy
2:55 PM 64.9 °F 56.8 °F 75% 30.18 in 10.0 mi Calm Calm - N/A   Scattered Clouds
3:15 PM 65.5 °F 57.2 °F 75% 30.17 in 10.0 mi ESE 3.5 mph - N/A   Scattered Clouds
3:35 PM 65.3 °F 57.4 °F 76% 30.16 in 10.0 mi ESE 3.5 mph - N/A   Mostly Cloudy
3:55 PM 65.3 °F 57.6 °F 76% 30.16 in 10.0 mi ESE 3.5 mph - N/A   Overcast
4:15 PM 64.9 °F 58.1 °F 78% 30.17 in 10.0 mi Calm Calm - N/A   Mostly Cloudy
4:35 PM 64.4 °F 58.1 °F 80% 30.17 in 10.0 mi Calm Calm - N/A   Clear
4:55 PM 64.4 °F 58.5 °F 81% 30.17 in 10.0 mi East 3.5 mph - N/A   Scattered Clouds
5:15 PM 64.0 °F 58.5 °F 82% 30.18 in 10.0 mi Calm Calm - N/A   Mostly Cloudy
5:35 PM 63.3 °F 58.5 °F 84% 30.18 in 10.0 mi Calm Calm - N/A   Overcast
5:55 PM 62.1 °F 58.8 °F 89% 30.18 in 10.0 mi Calm Calm - N/A   Overcast
6:15 PM 61.7 °F 58.3 °F 89% 30.18 in 10.0 mi Calm Calm - N/A   Mostly Cloudy
6:35 PM 61.2 °F 58.6 °F 91% 30.18 in 10.0 mi Calm Calm - N/A   Mostly Cloudy
6:55 PM 59.7 °F 57.9 °F 94% 30.19 in 10.0 mi North 3.5 mph - N/A   Overcast
7:15 PM 60.3 °F 58.3 °F 93% 30.18 in 10.0 mi Calm Calm - N/A   Overcast
7:35 PM 59.0 °F 57.4 °F 94% 30.18 in 10.0 mi Calm Calm - N/A   Overcast
7:55 PM 58.3 °F 57.6 °F 97% 30.20 in 10.0 mi Calm Calm - N/A   Overcast
8:15 PM 58.8 °F 57.7 °F 96% 30.19 in 10.0 mi East 4.6 mph - N/A   Mostly Cloudy
8:35 PM 56.8 °F 56.3 °F 98% 30.19 in 10.0 mi Calm Calm - N/A   Clear
8:55 PM 56.1 °F 56.1 °F 100% 30.20 in 4.0 mi Calm Calm - N/A   Clear
9:15 PM 55.2 °F 55.2 °F 100% 30.20 in 5.0 mi Calm Calm - N/A   Clear
9:35 PM 54.1 °F 54.1 °F 100% 30.22 in 0.5 mi Calm Calm - N/A Fog Fog
9:55 PM 54.0 °F 54.0 °F 100% 30.21 in 10.0 mi Calm Calm - N/A   Overcast
10:15 PM 56.1 °F 56.1 °F 100% 30.20 in 10.0 mi Calm Calm - N/A   Overcast
10:35 PM 55.6 °F 55.6 °F 100% 30.20 in 10.0 mi Calm Calm - N/A   Overcast
10:55 PM 55.6 °F 55.6 °F 100% 30.20 in 7.0 mi Calm Calm - N/A   Overcast
11:15 PM 59.2 °F 59.2 °F 100% 30.20 in 10.0 mi East 3.5 mph - N/A   Overcast
11:35 PM 57.4 °F 56.5 °F 97% 30.20 in 10.0 mi Calm Calm - N/A   Overcast
11:55 PM 58.1 °F 57.7 °F 99% 30.20 in 10.0 mi Calm Calm - N/A   Overcast